RH
20 19 18 18 18 18 19 20 20 21 22 21 20 18 16 16 15 14 14 14 13 13 13 12 11 10 11 11 11 12 11 11 12 12 11 12 11 11 12 12 11 9 7 6 6 7 6 7 6 7 7 8 9 9 12 14 17 17 17 20 17 16 14 18 20 33 61 61 69 97 99 97 94 91 86 71 62 62 57 57 61 58 66 80 74 58 49 47
22 20 19 18 18 19 19 20 21 21 22 21 20 18 16 15 15 14 14 14 14 13 13 12 12 11 10 10 11 11 11 11 11 12 11 11 11 11 11 11 12 11 10 9 7 7 6 7 6 7 7 7 8 8 10 11 14 14 17 20 20 20 18 19 21 35 53 49 54 67 69 68 62 71 76 66 63 61 55 61 75 73 72 82 76 61 49 46
25 22 21 19 19 19 20 20 21 21 21 21 20 19 17 15 14 14 14 14 14 14 13 12 12 11 11 10 10 11 11 11 11 11 11 11 11 11 11 11 11 11 11 11 11 9 8 7 6 7 7 8 8 8 9 9 11 12 14 18 20 24 23 23 25 29 34 37 39 36 47 48 39 59 64 59 69 67 59 69 87 84 74 70 62 54 47 54
27 25 23 21 20 20 20 21 21 21 21 20 20 19 18 17 15 14 13 13 14 14 13 12 12 11 11 11 10 11 10 11 11 11 10 10 11 11 11 11 11 11 11 11 11 11 11 10 9 8 7 7 7 7 9 8 10 10 12 14 16 21 23 24 27 28 30 35 37 34 45 42 35 45 43 58 86 82 75 80 82 72 60 51 43 43 51 66
29 27 25 23 21 20 20 20 21 20 20 20 19 19 18 17 16 15 14 13 13 13 13 12 12 11 11 11 10 10 10 11 11 11 11 10 10 10 11 11 11 11 11 11 10 11 11 11 11 11 10 9 8 7 7 8 8 9 10 11 13 16 19 23 25 27 28 33 40 37 37 35 32 29 29 60 84 81 82 75 66 62 54 41 28 36 60 68
30 29 27 25 23 21 19 19 19 19 19 19 19 18 18 17 17 16 15 14 13 12 13 12 12 11 11 11 11 10 10 10 10 11 11 11 10 10 10 10 11 11 11 11 11 11 10 10 11 11 11 11 11 10 9 8 7 8 8 8 9 10 13 16 17 19 20 24 30 29 27 24 21 25 44 76 88 84 78 59 51 52 46 41 36 42 54 47
30 29 28 26 25 24 21 19 18 17 18 18 18 18 18 17 17 16 16 15 13 12 12 12 11 11 11 11 10 10 10 10 10 10 11 11 11 11 10 10 10 11 11 11 11 11 11 11 10 10 10 10 11 11 12 11 10 10 9 9 9 8 9 8 10 14 14 16 17 17 19 21 37 60 74 79 72 59 51 47 50 48 38 37 39 38 33 24
29 29 27 26 25 25 24 22 20 18 16 15 16 16 16 16 16 16 15 14 14 13 12 11 11 10 10 10 10 10 10 10 9 10 10 11 11 11 11 10 10 10 11 11 11 11 11 11 11 10 10 10 10 10 11 11 11 12 12 13 13 13 14 13 17 19 17 18 18 23 39 61 81 79 58 44 38 36 42 50 49 46 47 42 36 31 24 20
28 28 27 26 26 26 25 24 23 20 18 16 15 14 14 14 14 14 13 13 13 12 12 11 11 10 10 10 10 10 10 10 9 10 10 10 11 12 11 10 10 10 11 11 11 11 11 11 11 11 11 11 11 10 10 11 10 12 14 17 17 20 22 21 21 24 26 27 30 50 79 98 86 52 28 24 30 39 48 54 49 56 75 63 35 21 17 16
28 27 27 26 26 26 25 24 24 22 20 17 15 14 13 13 12 12 12 12 12 12 11 11 10 10 10 10 10 10 10 10 9 10 9 9 10 11 12 11 10 10 10 11 11 12 11 11 12 11 12 11 11 10 10 10 10 11 13 15 16 18 24 27 25 25 32 41 55 81 103 98 60 27 18 16 24 42 57 59 53 68 90 67 28 13 13 14
28 27 27 26 26 26 25 24 23 22 21 18 16 14 13 12 11 11 11 11 11 11 10 10 10 9 10 10 9 9 10 10 9 9 9 9 9 10 11 11 11 11 11 11 11 12 12 12 12 12 12 12 11 10 9 9 10 11 11 11 12 13 17 28 33 32 39 58 80 97 104 84 40 17 15 11 18 37 50 48 42 58 76 58 28 17 17 18
27 27 27 26 26 25 24 24 22 21 20 18 16 14 12 11 11 11 11 11 11 11 10 10 10 10 11 10 9 9 11 10 9 9 9 9 9 10 10 10 11 11 11 11 11 11 12 12 13 13 12 12 12 11 10 10 10 11 11 11 11 11 11 18 29 39 50 67 79 84 83 58 22 15 18 13 14 18 23 28 33 43 60 66 46 22 19 22
21 22 22 22 22 22 22 21 20 19 17 16 14 13 12 11 11 11 11 11 11 10 11 10 10 11 12 11 9 10 12 10 9 9 9 10 10 10 10 10 11 11 12 12 11 11 11 12 13 13 13 12 13 12 11 11 11 11 10 11 12 12 12 11 15 25 36 44 47 47 43 25 10 15 17 12 13 12 13 19 31 37 52 75 57 26 24 28
17 16 16 16 16 16 16 16 15 15 14 14 13 12 12 11 12 12 12 12 11 11 11 11 12 12 13 12 9 12 13 10 10 9 9 10 10 11 11 10 10 11 11 12 12 12 12 12 12 13 13 13 13 12 12 12 11 11 11 11 12 12 12 11 12 12 14 16 17 17 14 11 11 13 12 14 16 14 13 14 27 30 31 53 61 58 54 48
20 19 18 17 17 16 15 15 14 14 13 13 13 13 13 12 12 12 12 12 12 12 11 12 13 13 15 13 10 14 14 11 10 9 9 10 11 13 12 10 11 10 11 11 12 12 12 12 12 13 13 13 13 13 13 13 12 12 12 12 11 11 11 10 12 12 11 10 10 10 10 11 11 11 11 13 13 13 14 13 19 17 18 48 74 79 63 49
27 26 24 22 22 20 19 19 18 17 16 15 15 14 14 13 13 13 13 13 13 13 13 14 14 15 17 15 12 15 16 14 13 11 11 11 11 12 11 11 12 11 11 11 11 12 12 13 13 13 13 13 14 14 14 13 13 13 12 12 10 11 11 11 12 13 13 13 12 12 11 12 12 12 12 12 12 14 16 16 16 17 31 53 56 53 48 44
37 35 33 31 29 28 26 25 23 22 21 20 18 18 18 17 16 16 16 15 15 15 15 16 16 17 19 18 15 15 18 18 16 14 13 11 10 11 12 12 12 12 12 12 12 12 13 14 13 13 13 14 14 14 14 14 14 13 12 12 11 10 10 11 13 12 13 12 12 12 12 13 13 13 12 12 13 14 19 24 26 26 28 33 32 40 50 52
38 38 37 37 36 35 33 32 31 29 28 26 24 22 21 20 20 20 19 18 18 18 17 18 18 19 21 20 18 17 18 19 18 17 15 14 13 12 12 13 12 12 13 13 14 13 13 14 13 14 14 15 15 14 15 14 13 12 11 11 11 11 11 11 11 11 11 11 11 13 13 14 13 13 13 13 13 13 18 26 34 33 22 26 38 46 50 59
32 32 33 33 34 34 35 35 35 34 34 32 30 28 26 25 23 23 23 22 20 19 19 19 20 21 21 21 20 18 18 18 18 19 19 17 15 13 13 13 13 13 13 15 16 15 14 13 14 15 15 15 15 14 15 14 12 12 12 12 11 11 11 11 11 11 12 12 12 13 14 14 14 15 14 14 15 17 25 31 37 39 29 31 42 49 61 69
25 25 26 26 27 28 29 30 32 32 33 33 33 32 30 30 28 27 28 27 25 22 21 20 21 23 23 22 22 20 19 19 19 20 21 19 17 16 15 15 15 15 15 16 17 16 14 14 15 16 16 15 14 14 14 14 12 12 12 12 12 12 12 11 12 12 12 13 13 13 13 13 14 15 13 14 16 22 33 34 36 43 34 28 32 44 64 63
21 21 21 21 21 21 22 23 25 26 27 29 29 30 30 30 30 28 29 32 30 28 26 24 23 26 28 24 23 23 19 18 19 19 20 19 18 17 18 18 17 17 18 17 16 15 14 16 17 17 16 15 15 14 14 14 13 13 13 13 13 13 13 13 12 13 13 14 14 14 13 13 14 15 13 13 15 19 24 23 31 48 38 25 27 32 46 57
20 20 20 20 19 19 19 18 19 20 21 23 23 25 26 26 27 27 28 30 32 30 29 29 27 30 35 29 24 24 22 21 21 20 19 19 18 18 18 19 18 18 18 16 15 15 15 18 19 17 15 15 15 14 15 15 14 13 13 13 14 14 14 13 13 13 14 15 16 15 14 13 13 14 12 12 14 15 17 15 25 49 43 23 23 22 34 59
20 20 20 20 19 19 19 18 17 17 18 18 18 19 20 21 22 23 24 25 28 28 28 30 29 31 37 35 28 25 25 26 25 23 20 18 19 18 18 18 19 18 17 16 16 16 18 21 20 16 15 15 15 15 15 15 15 14 14 15 16 15 14 14 14 14 14 14 15 14 14 13 12 12 12 12 15 15 16 15 18 44 51 26 16 16 26 53
17 17 18 18 18 18 18 18 17 17 17 17 17 16 16 17 17 18 19 20 24 26 25 25 27 29 32 34 29 24 27 28 27 27 24 21 22 21 19 20 20 19 18 17 16 18 20 21 18 16 17 16 15 16 15 16 17 16 15 17 19 16 15 14 15 14 13 14 14 14 14 14 12 12 12 13 15 14 15 15 13 30 42 24 14 14 18 35
15 15 15 15 15 15 16 16 16 16 16 16 16 16 16 15 15 15 16 18 22 26 26 22 22 25 27 28 26 24 28 30 30 30 28 26 27 26 25 24 23 21 21 20 18 19 24 23 18 17 18 17 17 17 17 18 19 19 17 19 21 18 15 15 14 14 13 14 16 16 15 15 14 14 13 13 14 15 15 15 13 16 22 18 14 13 15 21
13 13 13 13 14 14 13 14 14 13 14 14 14 14 15 15 15 14 15 18 21 24 28 25 21 20 23 24 23 22 25 27 29 29 28 28 28 28 28 27 27 26 26 25 21 20 24 24 19 18 19 19 20 20 20 20 21 22 21 23 23 19 17 15 14 14 14 15 17 17 16 15 16 15 14 14 14 16 15 15 16 14 14 15 14 12 16 19
15 14 13 13 13 13 13 12 12 12 13 13 13 12 13 13 13 13 14 16 19 21 23 25 23 19 18 21 20 18 19 23 27 27 26 27 27 27 27 27 29 30 30 28 24 25 28 27 23 22 23 22 22 23 24 23 23 25 25 23 23 19 18 16 14 15 15 15 17 17 16 16 17 17 17 16 16 16 16 16 16 16 14 14 14 13 16 18
20 18 17 16 14 14 13 12 11 11 11 11 11 11 11 11 11 12 13 14 16 18 19 20 21 19 17 18 19 18 18 20 24 24 22 23 24 24 24 25 27 29 30 28 29 33 34 30 25 23 23 22 23 25 26 25 25 27 26 23 22 20 19 17 15 15 16 16 16 17 19 19 19 21 20 19 18 17 17 17 16 15 15 14 14 14 15 17
23 22 22 21 19 18 17 17 16 14 12 10 10 10 9 10 10 11 12 13 14 14 15 16 17 18 18 17 18 19 19 19 22 24 21 19 21 22 22 22 24 25 26 25 28 33 32 29 26 23 22 23 23 25 25 24 26 27 26 24 22 21 20 18 16 16 16 16 16 18 23 23 23 24 22 20 20 19 18 17 17 15 15 15 14 13 15 16
24 23 23 22 21 20 19 19 19 18 16 14 13 11 10 9 9 9 10 11 12 13 13 13 14 15 17 18 17 18 19 20 24 26 23 19 20 23 22 21 21 21 23 23 25 28 29 29 28 25 24 24 23 23 23 23 25 26 26 24 23 22 21 19 18 17 16 15 18 22 25 25 25 24 23 22 20 20 18 17 18 16 15 15 14 14 14 14
26 25 24 23 22 20 19 18 16 16 16 16 15 14 13 12 10 10 10 9 10 12 12 11 12 13 14 16 16 16 18 19 22 25 26 23 21 24 24 21 19 19 20 21 23 26 28 27 26 25 25 25 24 23 23 24 24 25 24 24 23 22 21 20 18 17 16 19 25 27 25 23 24 24 23 21 19 17 16 17 17 17 16 15 14 14 14 13
28 26 24 23 21 19 17 16 14 14 13 13 13 12 12 12 11 12 12 12 11 11 11 10 11 12 12 13 15 15 16 17 19 22 25 26 25 27 31 28 25 25 25 28 31 34 35 33 31 29 28 27 26 25 26 25 25 25 24 23 23 22 22 21 20 20 22 26 29 27 23 20 20 23 21 18 16 15 16 16 15 16 17 15 14 15 14 13
27 26 24 22 20 18 17 16 14 13 12 11 10 10 9 9 9 10 10 12 13 13 12 10 9 10 11 13 14 14 15 15 17 19 22 24 24 27 34 36 32 30 32 37 42 44 46 46 40 36 32 30 28 26 26 25 26 27 27 27 27 26 26 25 25 27 28 30 29 25 22 19 19 22 20 17 14 15 16 15 14 15 16 15 15 14 15 14
24 23 21 19 18 17 15 14 14 12 11 10 9 9 8 8 7 8 8 9 10 12 13 13 12 12 11 11 12 13 15 15 15 15 16 19 21 22 28 34 33 31 32 36 41 41 43 45 42 40 38 36 33 30 29 28 28 30 33 34 33 32 32 30 31 32 30 29 28 24 20 19 21 21 19 16 14 15 17 16 15 15 15 16 15 14 16 15
20 18 17 15 14 13 12 12 11 11 10 9 9 8 7 7 6 6 7 7 7 9 11 13 15 15 13 11 11 11 13 15 14 14 14 15 17 18 22 29 31 31 32 34 36 38 39 41 43 43 42 41 40 37 36 34 31 32 34 33 34 35 35 33 33 32 30 28 25 22 20 20 21 21 20 17 16 16 16 16 15 14 15 15 14 14 15 16
17 16 14 12 11 10 9 9 8 8 7 7 6 6 6 5 5 6 6 6 6 7 8 11 13 14 14 12 11 10 10 12 14 15 15 14 15 16 19 25 28 28 29 31 34 37 38 42 46 44 41 40 41 39 38 36 34 34 36 35 37 40 36 35 36 32 29 27 24 23 22 21 21 21 21 19 18 17 16 16 15 14 14 13 14 14 14 20
13 11 10 9 8 7 6 6 6 5 5 5 5 4 4 4 4 4 4 5 5 6 7 9 10 12 13 13 13 11 9 10 12 15 16 15 15 15 17 22 26 25 24 26 30 33 36 43 48 46 42 42 42 41 38 37 34 34 37 39 40 39 36 35 35 30 27 26 24 23 22 22 21 21 20 19 18 17 16 15 14 14 14 12 14 13 15 27
9 8 8 7 6 5 5 5 5 5 4 4 4 3 4 3 3 3 3 3 4 5 6 7 8 9 11 12 12 12 11 10 11 13 16 17 15 15 15 17 20 20 18 19 22 26 31 38 44 44 42 41 43 42 39 36 33 32 36 38 36 34 34 35 33 30 28 27 25 24 22 22 21 20 19 18 17 16 15 15 14 14 13 12 13 12 17 29
7 7 7 6 5 4 4 4 4 4 3 3 3 3 3 3 3 2 2 3 3 3 4 5 7 8 9 11 11 12 12 11 11 11 13 15 15 14 14 15 16 16 16 16 16 19 22 28 35 37 38 38 38 37 35 33 32 31 33 34 31 30 31 32 31 30 29 27 25 24 22 21 21 20 19 18 17 16 15 14 13 13 12 12 12 12 15 25
6 5 4 5 4 3 3 3 3 3 3 3 2 2 2 2 2 2 2 2 2 3 3 3 5 6 8 9 10 11 12 12 13 12 10 13 14 14 14 15 16 16 16 16 16 17 17 19 24 28 31 32 29 27 29 30 30 29 30 31 30 28 28 28 28 27 26 25 24 22 21 21 21 19 18 17 16 16 15 14 13 12 12 12 11 12 13 17
4 4 3 4 4 3 3 3 3 3 3 3 3 2 2 2 2 2 1 2 2 2 3 3 3 4 6 8 9 10 11 12 13 13 11 11 13 14 14 14 16 17 17 17 18 18 17 16 18 22 25 24 21 22 26 29 28 27 29 31 33 32 29 29 28 26 26 26 24 23 22 22 20 18 18 18 16 15 14 13 13 11 11 11 11 13 12 12
5 5 5 4 4 4 4 4 3 3 3 3 3 3 2 2 2 1 1 1 1 2 2 2 3 3 4 6 8 9 10 11 12 13 11 11 11 13 14 13 15 17 17 17 17 16 15 16 19 22 22 20 20 22 26 29 29 28 28 30 33 33 30 28 30 29 27 26 25 25 25 24 22 20 19 18 17 16 14 13 12 11 11 11 12 14 13 10
10 8 7 6 5 6 6 5 4 4 3 2 2 2 2 2 2 2 1 1 1 1 2 2 2 3 3 4 6 8 8 10 11 12 11 12 11 12 14 15 13 14 17 18 18 16 15 15 18 21 22 21 23 23 25 29 29 26 25 26 28 30 27 26 30 31 28 26 26 26 27 26 23 21 20 19 17 16 14 13 12 11 11 11 12 14 14 10
14 13 10 6 6 6 5 5 4 4 3 3 3 2 2 2 2 2 1 1 1 1 1 2 2 2 3 3 4 6 7 8 10 11 11 12 13 12 14 16 13 12 14 18 19 18 18 18 18 20 21 20 22 22 21 24 25 20 20 23 25 27 28 26 27 28 27 25 24 26 27 26 23 20 20 19 17 16 15 13 12 11 11 11 12 12 12 11
15 14 11 7 6 6 5 4 4 4 3 3 3 2 2 2 2 2 2 1 1 1 1 1 2 2 2 3 3 4 6 7 8 11 11 12 13 13 13 15 14 11 13 17 19 18 19 20 19 20 19 18 19 20 19 22 24 23 22 22 24 27 28 28 26 26 27 24 23 25 26 25 22 20 20 19 18 16 14 13 12 12 11 10 12 11 10 11
13 11 10 9 8 7 5 5 4 4 3 3 3 2 2 2 2 2 2 2 2 2 2 1 1 2 2 2 3 3 4 5 7 10 11 11 13 13 13 14 14 13 13 16 18 18 19 21 20 20 20 17 17 18 19 24 29 30 26 25 27 28 28 29 28 26 27 26 24 25 27 26 22 20 21 20 17 15 15 15 12 12 12 10 12 12 10 11
11 9 8 10 10 7 5 5 4 4 3 3 3 2 2 2 2 2 2 2 2 2 2 2 1 2 2 2 3 3 3 4 5 9 12 11 12 13 13 14 15 16 16 16 17 18 18 20 21 21 21 20 19 18 18 21 26 30 28 27 31 31 29 29 29 27 26 26 25 26 29 27 22 21 23 20 17 18 17 14 12 13 13 11 11 14 12 12
13 11 8 8 8 6 5 4 4 3 3 3 3 2 2 2 2 2 2 2 2 2 2 2 1 2 2 1 2 2 3 4 4 7 11 11 12 13 13 13 15 19 19 16 14 16 17 18 19 20 21 21 20 19 19 19 21 25 26 27 30 33 32 30 30 29 27 26 26 28 31 30 23 23 26 21 19 20 19 21 22 20 17 13 12 15 13 12
16 14 11 8 7 6 5 4 4 4 4 3 3 2 2 2 2 2 2 2 2 2 2 2 1 1 1 1 2 2 3 3 3 6 9 11 12 12 13 13 15 20 22 16 12 15 18 18 18 19 21 23 22 21 20 19 18 20 22 24 27 31 32 31 30 29 27 26 27 30 36 34 25 25 27 21 18 22 32 42 40 29 21 16 13 14 14 13
19 17 13 9 6 4 4 4 4 4 4 3 3 3 2 2 2 2 2 2 2 2 2 2 2 2 1 1 2 2 2 3 3 4 7 10 12 12 12 13 14 18 21 16 12 15 19 18 18 18 20 24 24 23 21 19 19 20 20 20 21 25 30 32 30 29 28 27 26 31 41 38 25 23 26 20 17 23 37 52 54 42 31 23 16 15 15 14
23 19 13 9 6 5 4 4 4 4 4 3 3 3 2 2 2 2 2 2 2 2 2 2 2 2 2 1 2 2 2 3 3 4 6 8 11 12 12 13 14 16 19 16 13 15 19 19 18 18 21 24 25 26 24 20 19 21 22 22 20 22 30 35 33 28 27 27 26 30 42 40 25 23 26 20 18 23 35 57 72 64 46 33 24 19 16 15
25 20 14 9 7 5 4 4 4 3 4 3 3 3 3 3 2 2 2 2 2 2 2 2 2 2 2 1 2 2 2 2 3 3 5 7 9 11 11 12 14 15 17 17 15 15 19 21 20 20 22 24 25 27 27 24 22 23 24 27 28 25 29 38 40 34 29 28 28 30 39 39 28 25 28 22 18 21 28 46 63 58 42 34 30 23 17 15
Wind_Speed
39 38 38 38 37 37 36 36 36 36 36 36 35 34 33 31 29 27 25 23 21 20 20 20 19 18 17 16 16 14 13 11 10 9 9 9 10 9 10 11 14 18 22 25 28 31 33 36 38 40 41 41 42 42 42 42 42 41 39 39 39 38 37 36 35 34 33 33 32 31 30 29 29 32 34 35 37 39 40 41 41 40 39 38 36 36 38 39
41 41 41 41 40 40 39 39 39 39 38 38 37 37 35 33 32 30 28 26 24 23 22 22 22 21 20 20 19 18 17 15 13 12 12 12 11 11 11 11 11 13 16 20 23 27 30 32 35 37 39 41 42 42 43 44 44 43 42 42 42 40 40 38 37 37 37 36 35 36 36 35 34 35 37 38 38 39 40 39 39 39 39 38 37 36 36 36
43 43 44 43 43 42 42 42 42 41 41 40 40 39 38 36 34 32 30 28 27 26 25 24 24 24 24 23 22 22 21 19 17 16 16 14 13 13 12 12 12 12 13 15 18 21 25 28 31 33 36 38 40 41 42 43 44 44 43 44 44 43 42 42 40 40 40 40 40 40 39 38 37 37 38 39 39 39 39 38 37 36 37 37 36 35 34 34
46 46 46 46 46 46 45 45 44 44 43 43 42 41 40 39 37 35 33 31 29 29 28 27 26 26 26 26 25 25 24 23 22 21 19 18 17 16 15 14 14 14 13 14 15 17 19 22 25 28 31 33 36 38 40 41 42 43 43 44 45 44 44 44 43 43 43 42 43 43 41 39 39 40 40 38 37 38 38 36 33 32 32 32 32 31 31 30
48 48 48 48 48 48 48 48 47 47 46 45 44 43 42 41 40 38 37 34 32 31 30 30 29 28 28 28 28 28 27 26 26 25 23 22 21 19 18 17 16 16 15 15 15 15 16 18 20 22 24 27 30 33 36 38 40 41 42 43 44 44 45 45 44 45 45 44 42 42 42 41 41 41 41 39 37 37 36 34 32 30 30 29 29 29 28 28
50 50 51 51 50 50 50 50 50 50 49 48 47 46 45 44 43 41 40 38 36 34 33 32 32 31 30 30 30 31 30 29 29 28 26 26 24 23 22 21 20 19 18 17 16 16 16 17 17 18 20 22 24 27 30 33 35 37 39 40 42 43 44 44 44 45 45 45 44 43 43 41 39 39 39 38 34 32 31 30 29 29 28 27 26 26 27 28
52 52 52 52 52 52 52 52 52 52 51 51 50 48 48 47 45 44 43 42 40 38 36 35 35 33 33 33 33 33 32 32 32 30 30 30 28 27 26 25 23 22 21 20 19 18 18 18 18 18 19 19 20 21 24 26 28 31 33 35 37 38 40 41 41 42 42 42 41 40 38 36 35 34 33 31 29 28 27 25 24 25 25 24 23 23 24 24
54 54 54 54 54 54 54 54 54 54 53 53 52 51 51 49 48 47 46 45 43 42 40 38 37 36 35 35 35 35 35 35 33 33 33 32 31 31 30 28 27 25 24 23 22 21 21 21 20 20 20 19 19 20 21 21 22 24 26 27 29 30 32 34 35 36 36 36 34 32 31 31 29 28 25 24 23 23 22 20 20 20 19 18 18 18 19 20
55 56 56 56 56 56 56 56 56 56 55 55 54 53 53 52 51 50 49 47 46 44 43 42 40 39 38 38 39 37 36 37 35 35 36 34 34 34 33 32 31 29 28 26 25 25 24 23 22 21 20 19 20 21 21 21 21 21 22 23 23 24 25 27 28 29 30 30 29 28 27 26 25 23 20 17 16 15 15 16 16 15 14 14 13 14 16 18
57 58 58 58 58 58 58 58 58 58 57 57 56 55 54 53 53 52 51 49 48 47 45 44 43 42 41 41 42 39 37 40 39 38 38 37 36 36 36 36 34 33 31 30 29 28 27 25 24 23 22 22 23 23 22 22 21 21 22 21 21 21 22 22 23 24 25 26 27 27 24 22 21 20 16 13 13 12 11 12 12 12 13 13 13 14 16 17
59 60 60 60 60 60 60 60 60 60 59 59 58 57 56 55 54 53 53 51 50 49 48 47 46 45 44 44 44 40 38 42 42 40 40 40 38 38 39 39 38 36 35 34 32 31 29 28 27 26 26 25 25 25 24 23 22 22 22 21 21 21 21 21 21 22 23 24 26 27 24 23 21 18 15 13 13 12 10 12 13 12 13 13 14 15 16 18
61 62 62 63 63 63 63 62 62 62 61 61 60 60 58 57 56 55 54 54 53 51 50 49 48 47 46 48 47 41 41 45 45 42 41 41 41 41 41 41 40 39 38 37 35 34 32 31 30 29 29 28 27 27 27 25 23 23 23 22 22 22 22 22 21 22 22 23 25 26 26 24 22 18 16 14 13 13 12 13 13 13 14 14 14 15 17 18
63 63 64 64 65 65 65 65 64 64 63 63 62 62 61 59 58 58 57 56 55 54 53 51 50 49 48 50 48 43 44 46 47 45 43 43 43 43 43 42 42 42 41 40 38 37 35 34 33 32 31 30 30 29 28 27 26 25 25 23 23 23 23 23 23 23 24 25 25 26 26 24 22 19 18 14 13 14 13 13 14 14 14 15 16 16 16 17
64 64 65 65 66 66 66 66 66 66 66 65 65 64 64 62 61 60 59 59 58 57 55 54 53 51 50 53 50 45 47 48 49 49 45 44 44 45 45 44 44 44 43 42 41 40 39 37 36 35 33 33 33 31 29 29 28 27 26 25 25 25 25 24 24 25 26 26 26 26 26 24 22 20 19 16 14 14 14 14 14 14 14 15 15 14 14 15
66 66 67 67 67 68 68 68 68 68 68 67 67 67 66 65 64 63 62 61 61 60 58 56 55 53 52 55 52 47 49 50 51 51 47 46 46 47 47 47 46 46 45 44 44 43 41 40 39 37 36 35 34 32 32 32 31 30 29 29 29 27 26 25 25 26 27 26 26 27 26 24 22 20 20 17 14 14 15 15 15 15 14 13 13 13 14 14
68 69 69 69 70 70 70 70 70 70 70 70 69 69 69 68 67 66 65 64 63 62 61 58 57 55 54 56 55 50 50 52 53 52 50 49 49 49 49 49 48 48 47 46 46 45 43 42 41 40 39 37 36 36 35 34 34 33 32 32 31 29 27 27 27 27 28 28 28 27 26 24 23 22 20 18 16 15 16 15 15 14 12 13 13 14 14 14
72 72 72 72 73 73 73 72 73 73 73 73 72 72 71 71 69 68 68 67 66 64 62 61 59 57 56 58 58 55 52 54 54 54 54 52 51 51 50 51 50 49 48 47 47 46 45 44 43 42 41 39 39 38 37 38 39 37 35 34 32 30 29 28 30 30 30 30 29 28 27 26 25 24 22 20 18 16 16 16 14 14 13 14 13 13 13 12
76 76 76 76 76 76 76 76 76 76 76 76 75 75 74 74 72 71 71 70 69 67 65 63 61 60 60 61 61 59 56 56 56 56 57 55 54 53 52 53 52 51 50 48 48 48 47 46 45 43 42 42 42 41 41 43 43 39 37 35 33 31 30 30 31 32 32 31 30 29 28 27 26 25 24 22 20 17 18 17 15 15 15 13 13 13 12 12
80 81 81 81 81 81 81 80 80 80 79 79 79 78 77 77 76 73 73 73 72 70 68 66 64 64 64 64 65 64 60 59 58 58 59 58 57 55 54 54 54 53 51 51 51 50 49 48 45 45 46 47 46 44 45 46 43 40 38 36 34 33 32 32 32 33 33 33 32 31 30 29 28 27 25 23 21 19 19 18 15 15 15 13 13 13 11 12
83 84 85 85 85 86 86 85 85 84 84 83 83 83 81 80 80 78 75 76 76 74 73 71 68 68 69 68 68 68 65 63 61 60 62 62 60 58 56 56 56 54 54 54 53 52 50 48 47 49 51 50 48 46 46 46 43 40 39 37 36 35 34 34 34 34 34 34 34 34 33 31 29 29 29 25 21 20 21 20 17 15 15 14 14 13 12 13
84 85 86 87 87 88 89 89 89 89 89 88 88 87 86 85 84 82 79 78 80 79 77 75 73 70 73 74 72 72 70 66 65 64 65 66 64 61 59 58 58 57 58 58 55 53 50 48 52 55 53 51 49 48 47 46 44 43 41 40 39 38 37 36 35 35 35 36 36 36 35 33 31 31 31 27 24 23 23 22 19 16 15 16 15 13 13 14
85 86 87 87 88 88 90 90 90 91 92 92 91 91 91 90 89 87 84 81 83 85 81 80 78 74 77 80 77 75 73 69 69 69 69 69 67 64 62 61 60 61 62 59 56 53 51 53 58 57 53 52 51 49 49 48 46 45 43 42 41 41 40 39 38 37 37 38 38 37 37 36 34 34 32 29 26 25 25 24 22 19 17 17 16 13 14 14
88 88 88 89 89 90 90 91 91 91 92 92 93 93 93 93 92 91 89 85 85 90 88 84 82 80 80 84 83 79 75 73 73 73 73 71 69 68 66 64 64 65 64 60 57 56 55 60 61 57 54 54 52 52 50 49 47 46 45 43 44 45 43 41 40 40 39 40 40 39 38 38 37 35 33 31 29 28 28 26 24 23 20 18 17 14 14 14
91 91 92 92 93 92 92 93 93 93 93 93 93 93 93 94 93 92 91 88 87 91 94 90 86 86 86 88 89 82 77 77 77 76 76 73 72 72 69 68 68 67 65 62 61 59 60 64 62 57 56 55 53 52 50 49 48 48 47 45 47 48 46 44 43 43 41 40 40 39 39 40 38 37 36 34 33 31 30 29 27 26 23 20 19 16 15 15
91 92 93 94 95 96 96 96 97 96 95 95 95 95 94 94 94 93 91 90 89 91 94 95 92 91 91 92 91 85 81 81 80 80 79 77 76 75 73 72 71 69 67 66 65 62 63 66 62 59 58 56 55 53 52 51 50 50 49 48 50 51 48 47 46 45 42 40 41 41 40 41 40 39 38 36 35 33 31 30 30 29 27 24 22 20 18 16
89 90 91 93 94 96 97 98 99 99 99 99 98 98 97 96 95 94 92 91 93 93 93 96 97 95 93 93 93 91 86 82 83 85 83 80 79 79 77 75 72 71 71 70 68 65 66 67 63 61 60 58 57 55 54 54 52 51 51 52 53 52 51 50 48 46 44 42 42 43 42 42 42 41 40 38 37 35 33 31 31 33 31 27 25 22 20 18
89 90 90 91 92 94 95 96 98 99 100 101 101 101 100 99 98 96 95 93 96 97 96 97 98 97 94 93 94 94 88 84 87 89 86 83 83 83 80 77 75 75 75 74 69 66 68 69 65 63 63 61 57 56 57 57 55 53 55 55 55 54 53 52 50 47 46 45 44 44 44 43 42 42 42 40 39 38 36 33 34 36 34 31 27 24 23 20
92 92 93 93 92 93 94 96 97 97 98 99 100 100 101 101 100 99 98 98 100 102 100 98 98 98 95 92 92 92 90 88 89 91 91 89 87 86 84 81 79 78 79 76 69 69 73 73 69 67 66 63 60 60 61 59 56 56 58 57 56 55 55 54 52 49 48 47 44 44 45 45 43 44 45 43 42 41 39 37 37 38 36 34 31 26 24 22
92 93 94 95 95 95 96 96 98 99 99 98 98 99 99 99 99 99 99 100 104 106 103 99 97 96 96 94 92 92 92 90 89 90 93 91 88 87 86 84 83 82 83 78 72 74 77 75 73 72 68 64 63 64 64 60 58 60 61 59 57 57 56 55 53 51 50 47 44 45 46 46 46 46 47 45 44 45 45 42 41 40 37 36 34 28 26 25
92 93 94 95 96 97 97 97 98 99 100 100 99 99 98 98 96 96 97 99 103 106 104 100 97 96 97 96 93 92 92 91 89 90 92 91 89 87 86 87 87 85 84 81 77 77 78 77 76 72 68 66 66 67 65 62 61 63 63 60 59 58 57 56 53 53 50 45 45 47 48 48 48 48 48 48 50 51 49 45 42 40 37 37 36 31 29 27
92 93 94 95 96 98 98 98 98 99 99 100 100 99 98 98 96 95 96 97 99 102 101 98 97 97 97 97 96 95 94 94 93 92 92 92 90 88 87 88 87 85 84 81 77 77 79 78 75 72 69 68 67 66 65 63 63 64 63 61 60 59 58 56 54 53 47 43 47 51 51 50 49 51 53 53 54 53 50 47 44 40 37 37 36 34 32 29
91 93 94 96 97 98 98 99 98 98 98 98 98 98 97 96 94 93 94 95 96 98 97 95 95 95 96 97 98 99 98 98 98 97 95 95 93 89 87 86 85 84 81 77 76 77 77 75 73 72 70 68 66 65 64 63 63 63 62 61 60 59 57 55 53 50 45 46 52 55 55 51 49 54 56 54 53 52 51 49 45 41 39 38 36 35 35 30
88 91 94 95 96 97 97 98 98 98 98 97 96 96 95 93 91 90 90 91 94 96 95 94 93 94 96 97 99 102 104 103 103 101 100 99 97 92 88 87 87 84 79 77 80 79 76 75 74 71 68 66 65 64 64 63 62 62 62 60 59 58 56 53 51 50 49 52 55 58 56 50 49 55 56 54 52 51 51 48 45 42 39 39 37 37 37 32
85 88 91 93 94 95 96 96 97 97 97 97 97 95 93 91 89 88 88 88 89 91 92 93 94 95 96 97 100 103 104 106 107 106 103 101 100 96 92 89 88 85 82 83 84 81 78 77 74 69 66 67 66 65 65 65 65 64 63 62 61 58 55 53 54 55 55 56 57 59 54 48 52 57 55 52 50 48 48 47 45 42 38 38 38 37 38 35
83 85 87 89 89 89 90 91 91 92 93 93 93 93 91 88 86 87 87 86 85 86 88 91 95 97 97 98 101 100 99 103 107 107 105 102 99 97 94 92 90 88 88 88 85 81 79 77 73 72 72 72 70 68 68 67 66 65 65 63 60 57 56 56 57 59 59 58 58 56 51 50 55 56 51 49 48 46 45 44 44 41 37 37 37 38 39 37
81 82 83 85 85 83 83 84 84 85 85 86 86 87 86 85 83 84 84 83 83 83 84 88 93 97 98 98 99 97 96 99 103 104 105 104 100 97 96 95 94 94 93 90 86 83 82 78 76 78 78 74 73 72 70 69 67 65 63 60 57 59 60 60 60 61 59 56 54 52 51 52 55 52 48 47 47 46 45 43 42 41 38 36 36 38 39 39
77 76 76 77 78 76 75 75 75 76 77 78 78 79 80 79 79 79 80 79 80 80 82 86 90 93 96 99 99 96 95 98 100 101 104 105 103 102 100 99 99 101 100 96 93 90 86 82 82 83 80 75 74 74 73 72 69 65 61 59 61 64 62 60 61 60 56 53 51 50 52 53 51 49 48 48 47 46 45 43 42 42 40 35 36 39 40 41
69 67 67 69 70 68 67 67 67 68 69 70 70 71 72 73 74 74 74 74 76 77 79 83 87 90 94 98 98 97 96 98 99 101 102 104 105 104 104 105 106 106 106 103 100 97 92 88 87 86 81 77 78 78 76 72 67 62 60 63 65 64 60 59 59 56 53 51 50 51 52 51 49 49 49 47 46 46 45 43 42 43 40 36 37 39 41 45
62 59 58 61 63 62 60 60 60 61 63 64 64 65 66 66 68 69 69 69 70 72 75 79 84 88 92 95 97 97 97 97 99 101 102 104 105 104 104 106 107 107 105 102 100 97 93 90 89 86 82 81 83 81 75 69 65 62 63 65 65 61 59 59 57 55 53 52 51 52 51 49 49 50 49 46 46 47 45 42 42 43 39 38 39 40 45 49
56 54 52 53 55 56 54 54 55 55 57 61 61 61 61 61 61 62 63 64 65 67 71 75 81 86 90 93 95 97 97 97 99 101 102 103 105 105 103 103 104 105 104 100 96 94 91 88 87 85 84 86 85 78 70 66 65 64 64 64 63 61 59 57 56 54 53 52 51 50 49 50 52 50 47 46 46 45 43 41 43 42 39 39 42 43 47 51
54 51 49 49 50 50 49 49 51 51 52 55 57 58 58 58 58 57 57 59 60 62 66 71 76 82 87 91 94 96 95 97 100 102 102 102 104 105 103 101 101 104 104 101 97 95 92 89 88 89 90 89 83 75 70 70 70 68 66 65 64 64 61 57 55 54 52 52 51 50 50 53 52 48 45 44 43 41 40 40 42 42 39 40 43 46 50 51
53 52 50 49 48 48 47 47 48 50 50 50 51 53 55 55 56 55 53 53 55 57 61 66 71 78 84 90 93 94 96 98 101 102 102 103 103 103 103 102 101 102 102 101 99 97 93 89 88 90 90 87 81 77 76 75 75 73 72 69 68 67 63 57 56 56 55 54 53 52 52 53 52 47 44 42 40 40 41 41 42 43 41 42 46 50 52 51
53 53 52 50 48 47 47 46 47 48 49 49 49 50 51 52 52 53 51 51 52 53 56 61 66 73 81 88 91 95 96 98 101 102 101 101 102 101 101 102 101 99 98 97 96 94 92 89 87 88 88 85 83 82 79 78 79 77 73 70 67 66 62 59 59 60 59 56 54 53 53 53 52 48 44 42 40 42 45 44 43 43 42 43 48 53 53 50
51 53 53 50 47 46 46 45 45 45 46 47 48 47 48 48 48 49 48 48 49 51 53 56 61 69 77 84 89 94 96 98 101 101 99 99 100 100 100 101 101 98 94 92 94 93 92 92 90 90 90 87 84 83 79 78 79 75 69 66 64 64 64 63 62 61 60 57 55 55 55 55 53 48 45 44 44 44 45 42 41 42 43 43 47 53 53 51
49 51 52 51 47 46 46 44 44 45 44 44 45 45 44 44 44 44 45 45 46 48 51 53 56 64 73 80 86 92 96 97 99 99 98 98 100 99 99 100 100 97 93 91 92 92 91 91 91 91 91 87 83 81 77 73 72 69 65 64 65 65 66 65 63 60 59 58 56 56 56 56 52 47 46 46 45 44 42 40 39 42 42 42 45 51 53 52
47 46 46 47 47 45 44 43 43 43 42 42 42 42 41 40 39 38 40 41 42 44 49 52 53 60 68 76 82 88 93 96 96 98 99 100 100 99 98 98 98 96 92 91 91 89 88 88 88 88 89 86 83 81 75 71 71 70 68 66 66 67 66 65 63 60 58 58 58 57 57 55 50 48 48 47 44 40 39 39 39 40 42 42 45 49 52 53
47 45 42 43 45 45 43 42 42 41 40 39 39 38 37 36 34 33 34 37 38 40 45 50 52 56 64 72 78 84 90 94 95 98 101 101 100 99 97 97 97 95 92 91 89 87 87 88 88 87 88 87 85 83 79 77 75 74 71 68 66 66 65 63 62 61 60 60 60 59 58 54 50 50 50 47 41 38 39 39 38 40 42 42 43 47 51 53
48 48 45 42 44 44 43 42 41 39 38 37 35 35 33 32 30 30 30 31 34 37 43 48 50 53 60 67 74 79 85 91 93 97 102 102 100 99 97 96 96 94 92 91 89 87 87 88 88 87 86 87 87 86 84 81 78 76 73 70 67 66 65 62 62 63 63 62 61 60 58 53 52 53 52 47 42 39 39 38 37 39 41 42 43 47 50 52
48 49 48 45 44 42 40 39 39 37 36 36 34 32 31 30 28 27 26 27 30 34 40 45 47 51 57 63 69 75 81 87 90 95 100 102 101 100 98 96 96 94 92 90 88 86 86 87 87 85 83 86 87 86 86 84 80 77 75 71 68 66 65 63 64 66 65 63 62 61 58 56 56 56 53 49 44 39 37 37 37 40 41 42 44 46 48 49
47 47 47 45 43 40 37 36 36 35 34 33 33 31 29 28 27 25 23 24 27 32 38 42 44 48 54 59 66 71 76 83 87 92 98 102 102 102 99 97 96 94 92 91 88 86 85 87 86 83 83 85 85 85 87 84 78 75 74 72 69 65 64 65 66 67 66 66 64 62 60 60 59 56 53 50 44 40 39 39 39 40 41 41 42 44 46 48
46 45 44 42 41 39 36 34 33 32 31 30 29 29 28 26 24 23 21 22 25 30 35 39 42 45 50 56 62 67 72 79 84 88 95 101 103 103 100 97 95 94 92 92 88 85 85 87 85 82 81 83 82 82 83 80 75 74 73 72 70 66 65 66 67 66 67 68 66 64 64 63 59 56 54 52 47 43 42 41 41 42 42 41 41 43 45 48
44 44 43 41 40 38 36 34 32 31 30 28 26 26 26 25 23 21 20 20 23 27 31 36 39 43 47 52 58 62 68 75 80 84 92 99 102 102 100 96 95 93 92 92 90 86 85 85 84 82 81 82 81 80 79 78 77 75 73 71 72 71 71 70 69 68 69 70 69 68 68 64 60 58 58 55 50 46 45 45 45 46 44 42 41 43 45 47
Wind_Direction
252 253 253 253 254 254 256 257 258 260 261 261 261 260 259 259 259 258 258 257 256 256 255 254 252 247 241 241 241 240 236 231 224 219 211 200 194 193 193 198 205 211 215 218 219 220 221 222 224 225 226 227 228 229 230 232 235 236 238 239 240 241 243 244 246 248 251 251 249 248 248 254 262 267 271 275 277 279 281 284 285 284 284 286 285 286 290 293
252 253 253 253 254 254 255 256 258 259 260 261 261 261 261 259 258 257 257 258 258 256 254 253 252 250 246 242 239 238 237 234 228 226 222 211 203 201 198 197 198 202 208 213 217 220 222 223 224 226 227 227 228 229 230 231 233 234 235 237 240 242 243 244 245 247 251 253 252 253 255 257 263 269 274 277 278 279 281 285 286 284 282 282 280 284 290 294
253 253 253 254 254 255 256 257 258 259 260 261 262 262 262 261 260 258 256 256 258 258 255 253 252 251 249 246 242 238 236 236 233 231 226 218 213 211 205 202 201 201 203 206 211 215 219 222 224 227 228 229 229 230 231 232 234 234 235 236 239 241 243 244 245 247 252 255 255 257 260 262 264 269 275 280 280 279 281 285 287 284 282 280 278 282 289 292
253 253 254 254 255 255 256 257 258 259 260 261 262 263 263 263 262 261 258 256 256 258 258 255 252 251 250 248 246 241 237 235 235 234 230 224 219 217 213 210 208 206 207 206 205 208 212 216 220 224 227 229 231 232 233 234 235 236 237 237 238 240 243 244 245 247 250 254 257 258 260 264 267 270 275 280 281 280 281 284 285 284 282 280 278 282 287 288
254 255 255 255 255 256 257 258 258 259 260 261 262 263 264 264 264 264 261 259 257 257 258 257 254 251 251 249 247 245 240 235 235 234 234 231 224 221 219 216 214 212 212 211 209 209 209 211 214 217 221 226 229 231 233 234 236 237 238 239 240 241 243 244 245 247 249 252 256 259 261 265 269 271 274 277 277 276 278 280 281 281 282 281 277 279 282 286
256 256 256 256 256 257 257 258 259 260 261 261 262 263 263 264 265 265 264 263 260 258 257 257 256 253 252 250 248 247 243 239 236 233 234 235 231 226 223 219 217 217 217 215 215 215 213 212 213 213 216 219 223 227 230 233 235 236 238 239 240 241 243 245 246 248 249 251 255 259 261 264 269 271 273 274 275 274 275 278 278 278 281 281 278 277 280 286
257 257 258 258 258 258 259 259 260 260 261 262 262 263 263 263 263 264 264 264 263 261 258 258 257 255 253 251 249 247 245 242 239 235 233 235 235 232 228 224 220 219 220 221 220 221 220 218 216 216 216 216 218 221 225 229 231 234 236 238 239 241 242 244 245 247 249 251 253 256 260 264 267 269 272 272 273 276 278 277 278 278 279 279 279 281 284 287
259 259 259 259 259 260 260 260 261 261 261 262 262 262 262 263 263 263 263 263 263 262 260 259 257 256 255 253 250 247 245 244 241 239 236 233 235 236 233 231 226 222 221 223 224 224 225 225 222 221 220 220 220 220 222 225 228 231 233 235 236 239 240 241 243 244 245 247 248 250 255 259 261 265 270 273 275 277 276 274 275 277 278 280 283 287 289 290
261 261 261 261 261 261 261 261 262 262 262 262 262 262 262 262 262 262 262 262 262 261 261 260 259 257 256 254 252 247 246 245 241 241 239 234 233 235 236 235 232 227 223 223 225 226 227 227 228 229 227 227 226 224 223 223 226 230 232 233 234 235 236 238 240 239 238 240 241 242 246 250 257 264 269 274 274 271 269 270 272 274 279 283 284 287 291 293
262 262 262 262 262 262 262 262 262 262 263 262 262 262 261 261 261 261 261 260 260 260 260 260 259 258 257 255 252 248 246 245 241 240 240 236 234 234 236 236 235 233 229 225 225 227 228 228 230 233 233 233 232 229 226 224 225 228 231 233 234 235 235 236 237 236 233 233 233 236 242 251 258 264 265 266 267 261 259 265 270 272 277 281 283 289 292 293
262 262 262 262 262 262 262 262 262 262 263 262 262 262 261 261 260 260 260 259 259 259 259 259 259 259 258 255 252 249 246 245 242 239 239 239 236 235 235 235 236 236 234 230 227 227 228 229 230 233 234 235 236 235 232 229 228 229 231 233 235 236 236 235 235 234 231 228 230 235 244 253 256 258 257 258 261 257 254 263 271 272 273 275 282 292 296 294
262 262 262 262 262 262 262 262 262 262 262 262 262 261 261 260 260 259 259 258 258 258 258 258 258 258 257 255 253 249 245 245 243 239 238 239 238 237 235 234 235 236 236 235 232 229 229 229 231 233 234 235 238 239 238 236 236 236 234 234 235 237 238 236 234 234 231 229 231 237 244 250 252 252 250 251 257 259 256 262 268 269 271 272 281 295 298 295
263 263 262 262 262 262 262 262 262 262 261 261 261 261 260 260 259 258 258 258 258 257 257 257 257 257 255 255 253 249 245 245 244 240 236 238 239 238 237 235 235 235 236 237 236 233 231 230 231 233 234 235 238 239 240 241 241 241 240 239 239 240 239 238 237 236 234 232 234 239 244 248 249 249 249 250 256 262 261 261 261 262 268 272 282 295 297 297
263 263 263 262 262 262 262 262 262 261 261 261 260 260 260 259 258 258 257 257 257 257 257 256 256 255 254 254 252 247 246 245 245 242 237 236 238 239 239 237 235 235 235 236 237 236 234 232 232 233 235 236 237 238 241 243 244 244 245 244 242 241 241 240 240 240 239 237 238 241 245 247 249 249 251 250 251 260 262 261 258 258 266 272 281 291 295 302
264 263 263 262 262 262 262 262 261 261 261 260 260 260 259 259 258 258 257 257 257 257 256 255 255 254 252 252 250 245 245 245 245 244 240 235 235 237 238 238 236 236 235 235 236 237 237 235 234 234 235 237 239 241 241 243 243 244 245 245 244 243 244 244 244 244 244 243 242 244 246 248 249 249 251 249 248 255 259 258 256 261 269 270 275 282 289 301
264 263 263 262 262 262 261 261 261 261 261 260 259 259 259 259 258 258 257 256 256 256 256 255 254 252 251 251 249 244 243 245 245 244 241 237 234 235 237 238 237 237 235 235 235 237 238 238 237 236 236 237 239 241 242 243 243 242 243 244 244 244 245 246 247 247 247 247 246 247 249 249 250 249 249 250 249 249 253 255 256 261 266 267 273 279 284 298
265 264 263 263 262 262 261 261 261 260 260 260 259 259 258 258 257 257 257 256 255 255 254 254 253 252 250 250 249 245 242 242 243 244 242 239 236 235 236 237 237 237 237 236 236 236 237 239 239 238 238 238 239 240 242 243 242 240 240 241 242 243 244 246 248 248 249 250 250 250 251 251 251 251 250 250 249 248 251 252 253 256 259 264 271 274 277 295
265 264 264 263 263 262 261 261 260 260 260 259 259 258 258 257 257 256 257 256 255 254 253 252 252 251 250 249 249 246 242 241 242 244 244 241 239 236 236 237 237 237 238 237 237 237 237 238 239 240 241 240 239 239 240 241 241 240 240 241 242 245 246 247 250 251 252 252 253 253 252 252 252 252 252 252 250 250 249 247 249 254 258 262 267 269 274 293
265 265 264 263 263 262 261 261 260 260 259 259 259 258 257 257 257 256 256 256 255 254 253 251 251 251 250 249 249 247 244 242 241 243 245 243 240 238 237 237 238 237 238 238 238 238 237 237 239 242 242 241 239 239 240 242 243 244 245 245 246 247 248 248 250 252 253 253 253 253 252 252 253 253 252 251 252 252 248 244 247 254 257 261 268 272 277 290
266 265 264 264 263 262 261 261 260 259 259 258 258 258 257 256 256 255 255 256 256 254 253 252 250 251 251 249 249 248 245 243 242 242 244 244 242 240 238 238 238 238 238 239 239 238 238 237 239 241 241 241 241 241 243 244 245 246 248 248 249 248 248 248 248 250 252 253 252 252 251 250 250 252 252 250 249 249 248 247 246 248 255 260 263 271 278 286
266 266 265 264 263 263 262 261 260 259 259 258 258 257 257 256 256 255 254 255 256 255 253 252 250 250 251 249 247 248 246 244 244 242 243 244 243 241 240 239 239 238 239 238 238 238 238 240 240 240 239 240 242 242 244 246 246 246 247 248 248 248 247 246 246 247 249 251 251 251 251 250 248 249 252 252 249 246 248 250 246 239 246 257 260 265 271 279
267 266 265 265 264 263 262 261 260 260 259 258 257 257 257 256 255 255 254 254 255 255 253 252 251 249 250 250 247 247 247 246 245 244 243 243 244 242 241 241 240 239 239 238 238 238 238 241 241 239 239 240 241 243 244 246 246 246 247 249 249 248 246 245 244 244 245 246 248 249 249 249 248 248 252 253 251 249 248 249 247 238 236 249 258 259 263 269
267 267 266 265 264 264 263 262 261 260 259 259 258 257 257 256 255 255 254 253 254 255 253 251 251 249 248 250 248 245 246 246 245 245 244 243 244 243 241 241 241 240 240 239 238 238 238 240 241 240 240 241 241 242 244 246 247 247 248 249 249 248 246 245 244 243 242 244 246 247 248 249 250 250 250 250 249 249 249 249 248 241 236 243 252 255 257 260
268 267 266 266 265 264 263 263 262 261 260 259 258 257 256 256 255 254 254 253 252 254 253 250 249 249 247 248 248 246 245 246 246 246 245 244 244 244 242 241 241 241 241 240 238 237 239 241 241 240 241 242 242 244 245 246 246 247 247 248 248 248 247 246 245 245 244 245 247 248 249 251 251 251 250 250 249 248 250 250 250 246 241 242 244 245 249 252
269 268 267 266 266 265 264 263 262 261 260 259 258 257 256 256 255 254 253 252 251 251 253 252 249 247 247 248 248 247 245 245 246 246 245 244 244 244 243 242 242 242 242 241 240 238 240 242 241 240 242 242 242 243 243 244 244 245 245 245 246 247 247 246 246 246 246 246 248 248 249 250 251 251 250 250 249 249 250 252 255 252 247 243 240 240 242 245
270 269 268 267 267 266 265 264 263 262 261 260 259 258 257 256 255 254 252 251 250 249 249 251 250 247 247 247 248 247 245 245 246 246 245 244 244 244 243 243 243 243 242 242 240 239 241 242 241 240 241 241 242 242 243 243 243 244 244 243 245 246 246 247 246 247 247 246 246 248 248 249 250 252 252 251 250 250 250 251 254 255 252 247 241 238 238 240
272 271 270 269 268 267 267 266 264 263 262 261 260 258 257 256 255 254 253 251 250 249 247 248 249 249 247 247 248 249 247 245 245 246 245 244 244 244 243 243 243 243 243 242 241 241 242 242 241 240 240 240 241 242 242 242 241 242 242 242 244 246 246 247 247 247 248 246 246 248 250 250 251 253 253 252 251 249 248 248 249 251 253 251 245 239 238 238
272 272 271 270 269 268 268 267 266 265 263 262 261 260 258 257 255 254 253 252 251 250 248 246 248 249 249 247 248 249 248 245 244 246 246 244 244 244 243 243 242 242 242 241 240 240 241 241 239 239 239 239 239 240 241 241 241 241 242 243 244 245 246 247 248 248 248 248 248 250 251 252 251 251 252 251 251 250 248 245 245 248 250 252 249 241 237 238
274 273 272 272 271 269 268 268 267 267 266 264 262 261 259 258 256 254 253 252 251 250 249 247 247 248 249 248 247 247 247 246 245 245 246 246 244 244 244 243 242 241 242 241 238 239 241 241 240 239 239 240 240 241 241 241 241 242 243 243 244 246 247 248 249 249 249 250 250 249 249 250 249 249 250 251 250 249 246 243 243 246 248 250 250 243 235 235
276 275 274 274 273 272 270 269 268 267 267 266 264 262 261 259 258 256 254 252 252 252 251 249 248 247 248 248 247 246 246 246 245 244 245 245 244 243 242 242 241 241 241 241 239 239 241 241 241 241 241 241 241 241 242 242 241 242 244 244 245 246 247 248 249 249 250 252 252 249 246 246 247 248 248 248 247 247 245 244 243 245 246 247 249 245 237 232
279 278 277 276 275 274 273 272 270 269 268 267 266 265 263 261 259 257 256 254 253 253 252 250 248 247 246 247 247 247 246 245 243 243 243 244 243 242 241 242 242 241 241 242 241 240 241 242 242 242 241 240 241 242 242 242 241 243 244 244 245 246 247 248 249 250 252 251 249 247 244 242 244 246 246 245 246 247 248 246 244 243 243 245 247 246 241 233
279 278 277 277 276 275 275 274 273 272 271 270 268 267 265 263 261 258 256 255 254 254 252 250 249 247 245 244 245 245 244 243 242 240 240 241 241 240 239 240 241 240 240 240 240 239 239 241 241 240 240 239 240 240 241 241 242 243 244 244 245 245 246 247 248 249 247 244 244 244 243 241 241 244 246 246 247 249 249 248 245 242 241 242 244 244 243 236
279 278 277 277 277 276 276 276 275 274 274 272 271 269 267 266 263 260 257 254 253 252 251 250 247 246 244 242 241 241 241 241 240 239 237 237 237 236 236 237 237 237 236 235 235 234 234 236 236 237 238 239 239 239 240 240 240 241 242 242 242 243 243 243 244 243 240 239 242 243 243 242 242 244 245 247 248 249 250 251 249 246 242 241 240 241 244 239
281 280 279 278 277 277 276 276 275 275 274 273 272 270 269 267 264 262 259 255 252 250 249 248 247 245 243 241 239 237 238 239 240 239 238 237 236 235 234 234 236 236 235 233 233 233 232 233 234 235 235 236 236 237 237 236 236 236 236 236 237 237 238 238 238 238 237 237 239 243 244 243 243 244 244 246 248 249 252 253 252 250 246 243 240 237 240 238
285 284 283 281 280 279 278 277 276 275 273 272 271 270 269 267 265 262 259 256 253 250 247 246 245 244 242 241 239 236 235 237 239 240 239 238 237 237 235 233 234 234 233 233 233 232 233 233 233 232 231 231 231 231 232 233 233 234 234 235 236 237 237 236 236 236 236 236 239 243 245 244 244 246 247 248 249 249 250 252 252 251 246 243 240 234 234 235
289 288 286 284 283 281 279 278 276 275 273 272 271 270 268 267 264 261 259 256 253 250 247 244 243 242 241 240 239 237 235 235 237 239 240 238 237 236 236 234 233 233 233 232 231 231 231 231 231 231 231 229 230 230 229 230 230 231 233 235 235 236 235 234 235 236 237 238 240 243 244 244 245 248 248 248 248 247 247 247 248 248 244 240 238 233 230 231
292 290 288 286 284 282 281 279 277 275 273 272 270 269 268 266 263 260 257 255 252 248 245 243 241 240 239 238 237 236 234 233 233 235 237 238 236 233 233 233 231 231 231 229 228 227 227 227 228 230 230 229 230 230 229 229 229 228 230 232 232 233 233 233 235 237 239 240 241 242 243 243 245 247 247 245 246 246 245 243 243 243 240 235 234 231 224 225
293 291 290 287 285 283 282 280 278 277 274 272 270 268 266 265 263 260 257 253 250 247 243 241 240 238 237 237 236 234 232 231 231 232 233 235 235 232 231 231 231 231 231 229 227 225 223 223 226 227 228 228 229 230 229 229 230 229 228 230 232 232 233 234 236 238 239 239 239 240 241 243 244 246 246 244 245 246 245 243 242 240 237 232 231 229 220 221
295 293 291 289 287 286 284 282 280 279 277 274 272 269 267 264 262 260 257 253 249 245 242 238 237 236 235 234 234 233 231 230 230 230 230 231 233 232 231 231 232 233 234 233 231 228 225 223 225 227 227 228 228 229 229 230 230 230 229 232 234 234 234 234 235 236 237 237 237 238 241 242 243 244 244 244 244 244 244 243 242 240 236 230 228 225 219 220
299 296 293 290 289 287 286 284 282 279 277 276 274 271 269 266 262 259 256 253 249 244 240 237 234 233 232 231 231 231 230 228 228 229 228 228 230 231 230 230 232 233 235 235 235 234 232 228 227 228 228 229 229 229 230 231 231 230 231 233 236 237 235 235 236 236 236 237 238 239 241 242 243 243 243 244 244 244 244 243 242 240 234 229 227 224 221 220
304 301 298 295 292 290 288 286 283 279 276 274 274 273 271 268 265 260 256 252 248 244 239 236 232 231 231 230 229 228 228 227 227 227 227 226 227 229 229 228 229 231 232 233 233 233 233 231 229 228 229 230 230 229 228 229 230 229 229 229 232 235 234 234 236 237 237 237 238 239 241 242 242 242 243 244 244 245 243 241 240 238 232 227 225 224 224 222
310 307 305 302 300 298 296 291 287 283 279 275 273 272 270 268 266 263 258 253 248 243 239 235 231 229 229 228 227 226 225 225 226 226 225 225 225 226 228 227 227 228 229 230 231 231 232 231 230 230 230 230 230 228 226 227 227 227 226 225 227 230 231 230 233 235 235 235 236 237 239 242 242 240 240 240 240 239 237 234 234 234 228 223 220 221 224 223
314 311 308 305 304 303 300 295 291 287 284 281 277 274 271 269 266 264 260 255 250 244 239 234 230 228 227 226 225 225 224 223 224 225 224 224 224 224 225 227 226 226 227 228 230 231 232 233 231 231 232 231 230 229 226 226 227 226 225 225 226 229 231 229 229 233 233 233 234 236 237 239 240 237 236 236 235 236 235 232 231 232 227 222 219 220 223 222
316 313 310 308 308 307 302 298 295 291 288 285 282 278 275 271 268 264 260 255 251 246 241 234 229 226 226 225 223 223 223 221 222 224 223 223 224 222 223 225 226 224 224 225 227 228 229 231 230 230 231 230 230 230 228 227 229 230 228 227 227 229 231 230 229 231 233 233 233 235 236 238 239 237 235 235 234 234 236 235 233 233 229 223 222 223 224 223
317 315 313 312 313 310 305 303 300 297 294 290 287 284 280 274 270 266 261 256 250 246 242 236 229 225 225 224 222 222 222 221 220 221 222 222 223 222 221 223 224 223 222 223 225 225 226 228 229 230 231 231 230 231 230 229 232 233 231 229 228 227 228 230 230 230 233 234 234 235 237 238 239 238 236 235 234 235 237 236 233 234 231 226 224 225 226 225
319 316 316 317 317 313 310 309 306 302 299 295 291 287 284 279 274 268 262 257 250 245 241 237 230 224 223 223 222 221 221 221 219 219 220 221 221 221 220 220 222 222 220 221 223 223 224 226 228 230 232 232 231 231 229 228 229 230 228 227 227 227 227 228 230 230 231 233 234 235 236 237 237 237 237 236 235 235 238 236 234 234 232 227 224 224 226 226
323 321 322 323 321 317 316 315 311 306 303 299 295 291 287 284 279 270 262 256 251 244 240 237 231 225 222 222 222 221 221 220 218 216 218 220 220 220 219 218 220 221 220 220 220 220 221 223 224 226 229 231 230 230 228 225 225 226 225 224 224 226 226 226 229 229 229 231 232 233 235 235 235 236 236 235 234 234 236 236 235 234 233 229 224 223 225 226
330 328 328 329 326 323 322 319 314 311 309 304 300 297 292 288 281 272 263 256 250 243 238 235 231 226 222 221 221 220 220 220 217 215 217 218 219 219 218 217 217 218 219 219 217 217 219 221 221 221 224 228 229 228 228 226 224 224 224 223 222 223 224 224 226 228 228 229 231 232 232 232 232 233 234 233 230 230 233 235 234 234 233 230 225 223 223 224
336 334 333 333 329 326 326 322 319 317 314 310 306 302 297 292 285 276 267 257 248 242 237 234 231 226 222 220 219 219 218 219 217 215 216 217 217 218 217 216 215 215 217 218 215 214 217 220 221 219 220 224 227 227 228 227 225 225 225 223 221 221 223 222 223 226 227 227 228 230 230 229 228 230 232 230 227 225 227 230 230 231 231 229 226 224 223 224
340 339 337 336 333 331 331 329 324 322 318 315 310 306 301 296 288 281 271 258 247 241 237 234 230 226 223 220 219 218 217 218 217 215 215 216 216 217 216 215 215 213 213 216 214 212 215 218 219 218 218 221 224 226 228 227 225 225 227 226 224 221 223 224 223 224 226 227 227 228 228 228 228 230 231 230 227 221 221 225 228 230 229 228 226 225 224 223
344 342 341 341 340 338 338 334 329 325 322 318 313 309 305 298 291 283 272 259 247 239 237 235 230 226 223 220 218 218 217 217 216 214 214 215 216 216 215 214 214 211 210 213 213 211 212 216 217 217 217 219 221 224 227 227 226 225 227 228 227 223 222 225 226 225 225 226 227 227 227 228 229 229 230 230 226 219 217 220 225 227 226 225 225 223 222 222
347 347 347 348 347 345 344 341 336 331 327 323 318 313 307 302 296 286 273 258 245 238 235 235 231 226 223 220 218 217 216 216 216 214 213 214 215 215 214 212 212 210 209 211 212 209 210 214 215 215 216 218 219 222 225 225 224 223 224 226 228 224 220 221 223 224 224 225 226 226 227 228 228 227 228 228 226 220 215 217 224 227 226 224 223 223 222 223